Location: Unspecified
(0.0000°N, 0.0000°E)
Time: 08:31:51
(UTC+00:00)

Explorer 11/Cluster Stage 4 - Visible Passes

Search period start: 26 October 2014 00:00
Search period end: 05 November 2014 00:00
Orbit: 468 x 1281 km, 28.8° (Epoch: 24 October)

Date Brightness Start Highest point End Pass type
(mag) Time Alt. Az. Time Alt. Az. Time Alt. Az.
26 Oct 8.3 03:20:19 38° NNE 03:20:58 39° NNE 03:28:34 10° E visible
26 Oct 7.6 05:02:42 11° WNW 05:10:52 75° SSW 05:18:48 10° SE visible
27 Oct 8.1 03:13:52 46° NNE 03:13:52 46° NNE 03:21:39 10° E visible
27 Oct 7.7 04:56:16 14° WNW 05:03:34 63° SSW 05:11:31 10° SE visible
28 Oct 8.0 03:07:23 53° NE 03:07:23 53° NE 03:14:36 10° ESE visible
28 Oct 7.9 04:49:47 17° W 04:56:16 52° SSW 05:04:10 10° SE visible
29 Oct 8.0 03:00:51 54° E 03:00:51 54° E 03:07:26 10° ESE visible
29 Oct 8.1 04:43:15 18° W 04:48:58 44° SSW 04:56:43 10° SE visible
30 Oct 8.2 02:54:16 50° ESE 02:54:16 50° ESE 03:00:11 10° ESE visible
30 Oct 8.4 04:36:39 19° W 04:41:42 37° SSW 04:49:11 10° SE visible
31 Oct 8.4 02:47:37 42° SE 02:47:37 42° SE 02:52:50 10° ESE visible
31 Oct 8.6 04:30:00 19° WSW 04:34:27 31° SSW 04:41:34 10° SSE visible
01 Nov 8.7 02:40:54 35° SE 02:40:54 35° SE 02:45:23 10° SE visible
01 Nov 8.8 04:23:16 18° WSW 04:27:13 26° SSW 04:33:52 10° SSE visible
02 Nov 8.9 02:34:07 28° SE 02:34:07 28° SE 02:37:52 10° SE visible
02 Nov 8.9 04:16:29 16° SW 04:20:02 22° SSW 04:26:04 10° SSE visible
03 Nov 9.2 02:27:16 23° SE 02:27:16 23° SE 02:30:15 10° SE visible
03 Nov 9.1 04:09:38 14° SW 04:12:54 18° SSW 04:18:09 10° SSE visible
04 Nov 9.4 02:20:22 19° SSE 02:20:22 19° SSE 02:22:33 10° SE visible
04 Nov 9.2 04:02:44 12° SW 04:05:47 15° SSW 04:10:05 10° SSE visible
